Tracking 22124 objects as of 23-Jan-2021
HD Live streaming from Space Station
objects crossing your sky now

FLOCK 4V 2

Track FLOCK 4V 2 now!
10-day predictions
FLOCK 4V 2 is classified as:


NORAD ID: 46321
Int'l Code: 2020-061BB
Perigee: 536.8 km
Apogee: 543.0 km
Inclination: 97.5 °
Period: 95.3 minutes
Semi major axis: 6910 km
RCS: Unknown
Launch date: September 3, 2020
Source: United States (US)
Launch site: FRENCH GUIANA (FRGUI)
aabbcc
Your satellite tracking list
Your tracking list is empty




NASA's NSSDC Master Catalog

Two Line Element Set (TLE):
1 46321U 20061BB  21022.93718556  .00001087  00000-0  68638-4 0  9997
2 46321  97.5051  99.5022 0004533 131.2381 228.9240 15.11122171 21277
Source of the keplerian elements: AFSPC